Location: Ab? ar R?sh Ba?r?
(24.1861°N, 32.8847°E)
Time: 20:42:48
(UTC+00:00)

H-2A R/B - Pass Details

Date: 30 May 2022
Orbit: 576 x 652 km, 98.5° (Epoch: 03 July)

Event Time Altitude Azimuth Distance (km) Brightness Sun altitude
Rises 16:59:44 0° 32° (NNE) 2,798 5.4 -6.6°
Reaches altitude 10° 17:02:17 10° 48° (NE) 1,904 4.4 -7.1°
Maximum altitude 17:05:28 22° 99° (E) 1,321 3.2 -7.8°
Drops below altitude 10° 17:08:41 10° 149° (SSE) 1,926 4.1 -8.4°
Enters shadow 17:10:26 - 161° (SSE) 2,530 4.8 -8.8°
